Bookmark and Share
Track history (hours):
 

Bettina K

Last reported at 2014-Apr-17 21:33 UTC. Time now 2014-Apr-17 21:54 UTC.
Position N 55°26' E 012°40'.

Length 88 m; draft 3.8 m.

Type: Cargo ship. MMSI: 246193000.

NotesDate/timePositionNaut miles runAvg speedWind from/ knotsBaromVisibWave heightAir tempDewpointWater temp
2014-Apr-17 21:33N 55°26' E 012°40'10 9.9
2014-Apr-17 20:33N 55°36' E 012°42'9 8.8
2014-Apr-17 19:33N 55°45' E 012°41'9 8.8
2014-Apr-17 18:33N 55°53' E 012°39'9 8.7
2014-Apr-17 17:33N 56°02' E 012°38'9 8.6
2014-Apr-17 16:33N 56°08' E 012°28'1010.1
2014-Apr-17 15:33N 56°14' E 012°13'9 8.9
2014-Apr-17 14:33N 56°21' E 012°02'10 9.5
2014-Apr-17 13:33N 56°30' E 011°58'9 9.0
2014-Apr-17 12:32N 56°39' E 011°55'8 8.4
2014-Apr-17 11:33N 56°47' E 011°51'9 8.9
2014-Apr-17 10:33N 56°56' E 011°46'9 8.7
2014-Apr-17 09:33N 57°04' E 011°40'9 8.6
2014-Apr-17 08:33N 57°12' E 011°39'9 8.8
2014-Apr-17 07:33N 57°21' E 011°39'9 9.0
2014-Apr-17 06:33N 57°30' E 011°38'9 9.4
2014-Apr-17 05:33N 57°39' E 011°42'9 8.7
2014-Apr-17 04:33N 57°42' E 011°57'6 6.2
2014-Apr-17 03:33N 57°48' E 012°01'7 7.0
2014-Apr-17 02:33N 57°55' E 012°03'9 8.5
2014-Apr-17 01:33N 58°03' E 012°09'6 2.8
2014-Apr-16 23:30N 58°09' E 012°08'8 4.2
2014-Apr-16 21:33N 58°16' E 012°16'5 5.3
2014-Apr-16 20:33N 58°20' E 012°21'4 4.2
2014-Apr-16 19:33N 58°25' E 012°20'1110.5
2014-Apr-16 18:33N 58°32' E 012°34'3 0.1
2014-Apr-14 23:31N 58°34' E 012°38'8 8.9
2014-Apr-14 22:34N 58°28' E 012°27'7 7.0
2014-Apr-14 21:34N 58°22' E 012°19'2 2.3
2014-Apr-14 20:33N 58°20' E 012°21'5 4.9
2014-Apr-14 19:34N 58°16' E 012°16'16 3.2
2014-Apr-14 14:33N 58°01' E 012°08'6 6.6
2014-Apr-14 13:34N 57°55' E 012°03'10 5.2
2014-Apr-14 11:34N 57°44' E 012°00'6 5.9
2014-Apr-14 10:34N 57°41' E 011°51'8 8.0
2014-Apr-14 09:34N 57°36' E 011°39'8 8.2
2014-Apr-14 08:34N 57°38' E 011°25'10 9.5
2014-Apr-14 07:34N 57°43' E 011°10'10 9.9
2014-Apr-14 06:33N 57°48' E 010°53'1111.2
2014-Apr-14 05:33N 57°48' E 010°32'8511.6
2014-Apr-13 22:12N 57°02' E 008°18'238 8.5
2014-Apr-12 18:17N 53°36' E 004°50'7 9.6
2014-Apr-12 17:33N 53°29' E 004°46'1010.0
2014-Apr-12 16:33N 53°20' E 004°40'4610.9
2014-Apr-12 12:21N 52°40' E 004°00'910.4
2014-Apr-12 11:31N 52°34' E 003°50'14 9.8
2014-Apr-12 10:07N 52°25' E 003°34'5 9.2
2014-Apr-12 09:33N 52°21' E 003°28'9 8.8
2014-Apr-12 08:33N 52°15' E 003°18'9 8.3
2014-Apr-12 07:31N 52°09' E 003°09'11 8.7
2014-Apr-12 06:14N 52°00' E 002°57'25 8.8
2014-Apr-12 03:23N 51°41' E 002°31'8 9.6
2014-Apr-12 02:33N 51°35' E 002°23'1010.0
2014-Apr-12 01:32N 51°26' E 002°13'1310.4
2014-Apr-12 00:15N 51°14' E 002°03'810.7
2014-Apr-11 23:29N 51°10' E 001°53'1111.2
2014-Apr-11 22:31N 51°02' E 001°41'2211.1
2014-Apr-11 20:33N 50°43' E 001°24'29 9.6
2014-Apr-11 17:33N 50°26' E 000°47'10 9.5
2014-Apr-11 16:33N 50°24' E 000°33'  

Dump ship's entire track history

sailing weather and tide predictions

Bettina K — PBEW — position and weather